DELTA 1 DEB, 42563

Orbit data source: Space-Track

DELTA 1 DEB, 42563 is space debris in SSO originally from a launch on Sun, 23 Jul 1972 UTC launched from the Air Force Western Test Range (AFWTR). Debris objects in space refer to the collection of defunct objects orbiting the Earth. Examples of debris include non-operational satellites, rocket bodies, and fragments generated from explosions, collisions, or faulty payload assembly.

Loading next visibility...
Identifier
42563, 1972-058JW
Orbit
SSO
Country
Flag of USUS
Related business
Manufacturer
Unknown
Mission
Spacecraft
Bus & Motor
Unknown
Mass
Unknown
Launch date (UTC)
1972-07-23 (53 years ago)
Launch vehicle
Unknown
Launch site
Air Force Western Test Range (AFWTR)
Object type
Payload
Rocket body
Debris
Shape & HBR
Unknown
Radar Cross Section
Small (<0.1 m²)

Expand to show TLE details & history
Last TLE update: 14 hours ago

TLE from 14 hours ago
0 DELTA 1 DEB
1 42563U 72058JW  25259.32956496  .00000274  00000-0  26081-3 0  9992
2 42563  98.8047  33.9192 0249781  69.4684 293.3080 13.74843392586078
Epoch: 2025-09-16T07:54Z
TLE epoch observation values (Epoch: 2025-09-16T07:54:34.412Z)
Latitude
-0.00007°
Longitude
-80.2456°
Altitude
916.257 km
Speed
7.428 km/s
True Right ascension
02h 15m 40s
True Declination
0° 00' 00"
Sunlit
Object was in full shadow at epoch
Visualization orbit readout
Latitude
Unknown
Longitude
Unknown
Altitude
Unknown
Speed
Unknown
Apparent Right ascension
Unknown
Apparent Declination
Unknown
Sunlit
N/A
Visualization observer readout
Local Sidereal Time
14:29:37
Azimuth
Unknown
Elevation
Unknown
Doppler factor
Unknown
Orbital elements
Apogee altitude
1,163.234 km
Perigee altitude
795.676 km
Semi-major axis
7,357.592 km
Eccentricity
0.02498
Inclination
98.8047°
RAAN
33.9192°
Arg. of periapsis
69.4684°
True anomaly
290.6474°
Mean anomaly
293.308°
Eccentric anomaly
291.98089°
Mean motion
3.43906 °/min
Orbital period
104.68 mins
BSTAR
0.00026081
Loading maneuver chart data...
Computing Atmospheric mass density...

Documentation

Showing up to 5 results
|